TimeEST,TemperatureF,Dew PointF,Humidity,Sea Level PressureIn,VisibilityMPH,Wind Direction,Wind SpeedMPH,Gust SpeedMPH,PrecipitationIn,Events,Conditions,WindDirDegrees,DateUTC
12:54 AM,19.0,3.9,52,29.99,10.0,West,11.5,18.4,N/A,,Scattered Clouds,280,2013-01-21 05:54:00
1:54 AM,19.0,3.0,50,30.01,10.0,WNW,10.4,-,N/A,,Overcast,290,2013-01-21 06:54:00
2:54 AM,19.0,3.0,50,30.02,10.0,WNW,8.1,-,N/A,,Overcast,290,2013-01-21 07:54:00
3:54 AM,18.0,1.9,50,30.02,10.0,West,5.8,-,N/A,,Overcast,280,2013-01-21 08:54:00
4:54 AM,18.0,1.9,50,30.02,10.0,West,3.5,-,N/A,,Overcast,270,2013-01-21 09:54:00
5:54 AM,18.0,3.0,52,30.04,10.0,WSW,3.5,-,N/A,,Overcast,240,2013-01-21 10:54:00
6:54 AM,17.1,3.0,54,30.04,10.0,WSW,4.6,-,N/A,,Overcast,240,2013-01-21 11:54:00
7:54 AM,18.0,3.9,54,30.03,10.0,Variable,3.5,-,N/A,,Overcast,0,2013-01-21 12:54:00
8:54 AM,19.0,6.1,57,30.06,10.0,NW,4.6,-,N/A,,Scattered Clouds,320,2013-01-21 13:54:00
9:54 AM,19.0,7.0,59,30.05,10.0,West,4.6,-,N/A,,Overcast,270,2013-01-21 14:54:00
10:54 AM,21.0,7.0,55,30.02,10.0,South,4.6,-,N/A,,Overcast,180,2013-01-21 15:54:00
11:54 AM,21.9,5.0,48,29.98,10.0,SSW,4.6,-,N/A,,Overcast,210,2013-01-21 16:54:00
12:54 PM,23.0,5.0,46,29.95,10.0,Variable,3.5,-,N/A,,Overcast,0,2013-01-21 17:54:00
1:54 PM,23.0,3.9,44,29.94,10.0,Calm,Calm,-,N/A,,Overcast,0,2013-01-21 18:54:00
2:54 PM,23.0,6.1,48,29.91,10.0,WSW,4.6,-,N/A,,Overcast,250,2013-01-21 19:54:00
3:54 PM,21.9,9.0,58,29.90,9.0,SSW,4.6,-,N/A,,Overcast,200,2013-01-21 20:54:00
4:54 PM,21.0,12.9,71,29.88,8.0,ESE,5.8,-,N/A,,Overcast,120,2013-01-21 21:54:00
5:47 PM,19.4,15.8,86,29.84,2.5,Calm,Calm,-,0.00,Snow,Light Snow,0,2013-01-21 22:47:00
5:54 PM,21.0,16.0,81,29.88,2.5,Calm,Calm,-,0.00,Snow,Light Snow,0,2013-01-21 22:54:00
6:05 PM,21.2,15.8,80,29.83,2.5,ENE,3.5,-,0.00,Snow,Light Snow,70,2013-01-21 23:05:00
6:14 PM,21.2,15.8,80,29.83,3.0,ENE,3.5,-,0.00,Snow,Light Snow,70,2013-01-21 23:14:00
6:54 PM,21.0,16.0,81,29.88,5.0,Variable,3.5,-,0.00,,Haze,0,2013-01-21 23:54:00
7:54 PM,21.0,15.1,78,29.86,10.0,Calm,Calm,-,N/A,,Overcast,0,2013-01-22 00:54:00
8:54 PM,19.9,12.9,74,29.84,10.0,South,4.6,-,N/A,,Clear,170,2013-01-22 01:54:00
9:54 PM,19.0,12.0,74,29.82,10.0,Calm,Calm,-,N/A,,Clear,0,2013-01-22 02:54:00
10:54 PM,17.1,12.9,84,29.78,10.0,Calm,Calm,-,N/A,,Mostly Cloudy,0,2013-01-22 03:54:00
11:35 PM,19.4,14.0,80,29.74,10.0,SW,5.8,-,N/A,,Mostly Cloudy,220,2013-01-22 04:35:00
11:52 PM,19.4,14.0,80,29.73,10.0,WSW,8.1,-,N/A,,Mostly Cloudy,240,2013-01-22 04:52:00
11:54 PM,19.9,15.1,81,29.77,10.0,WSW,8.1,-,N/A,,Overcast,250,2013-01-22 04:54:00